QPF
0.04 0.04 0.04 0.06 0.13 0.09 0.05 0.04 0.04 0.03 0.03 0.03 0.02 0.02 0.02 0.02 0.02 0.03 0.04 0.03 0.03 0.01 0.01 0.04 0.06 0.06 0.05 0.04 0.03 0.05 0.05 0.05 0.04 0.04 0.05 0.05 0.05 0.04 0.05 0.05 0.06 0.04 0.03 0.03 0.04 0.06 0.14 0.28 0.24
0.03 0.06 0.06 0.08 0.09 0.07 0.04 0.04 0.04 0.04 0.03 0.02 0.02 0.02 0.02 0.02 0.03 0.03 0.03 0.03 0.03 0.01 0.01 0.01 0.04 0.06 0.07 0.05 0.04 0.05 0.06 0.06 0.05 0.06 0.07 0.07 0.07 0.06 0.06 0.06 0.06 0.05 0.03 0.03 0.04 0.06 0.09 0.21 0.30
0.03 0.04 0.04 0.07 0.06 0.05 0.04 0.03 0.05 0.05 0.03 0.03 0.03 0.02 0.03 0.03 0.02 0.02 0.03 0.03 0.02 0.01 0.01 0.03 0.07 0.06 0.06 0.05 0.05 0.06 0.06 0.08 0.08 0.07 0.06 0.05 0.06 0.08 0.07 0.05 0.05 0.04 0.03 0.04 0.05 0.05 0.06 0.11 0.19
0.03 0.03 0.03 0.04 0.04 0.03 0.02 0.03 0.04 0.04 0.03 0.02 0.03 0.03 0.03 0.02 0.01 0.01 0.03 0.03 0.02 0.02 0.01 0.04 0.08 0.07 0.07 0.06 0.06 0.08 0.08 0.08 0.09 0.07 0.06 0.04 0.05 0.06 0.06 0.04 0.05 0.04 0.03 0.03 0.03 0.03 0.04 0.05 0.09
0.03 0.02 0.02 0.01 0.02 0.03 0.03 0.03 0.03 0.03 0.03 0.03 0.03 0.04 0.04 0.03 0.02 0.02 0.02 0.02 0.03 0.02 0.01 0.03 0.07 0.10 0.14 0.10 0.08 0.08 0.10 0.10 0.10 0.07 0.05 0.05 0.06 0.05 0.04 0.04 0.03 0.03 0.03 0.03 0.02 0.01 0.02 0.04 0.05
0.01 0.01 0.01 0.01 0.01 0.02 0.03 0.03 0.03 0.02 0.02 0.02 0.02 0.02 0.03 0.03 0.03 0.03 0.03 0.04 0.03 0.02 0.01 0.03 0.07 0.15 0.16 0.09 0.10 0.10 0.10 0.11 0.09 0.07 0.06 0.05 0.05 0.05 0.03 0.02 0.02 0.02 0.02 0.02 0.02 0.02 0.02 0.02 0.03
0.01 0.00 0.01 0.00 0.01 0.01 0.03 0.03 0.02 0.01 0.01 0.01 0.01 0.01 0.01 0.02 0.02 0.03 0.04 0.04 0.04 0.04 0.04 0.03 0.04 0.11 0.19 0.15 0.11 0.09 0.06 0.06 0.06 0.05 0.04 0.04 0.06 0.05 0.04 0.03 0.02 0.02 0.02 0.02 0.02 0.02 0.02 0.02 0.02
0.01 0.00 0.00 0.00 0.00 0.01 0.02 0.03 0.02 0.01 0.01 0.01 0.01 0.00 0.01 0.01 0.01 0.02 0.03 0.03 0.05 0.06 0.07 0.07 0.06 0.05 0.10 0.12 0.11 0.08 0.05 0.04 0.04 0.04 0.03 0.03 0.05 0.04 0.04 0.02 0.02 0.02 0.02 0.02 0.02 0.02 0.02 0.01 0.02
0.01 0.00 0.00 0.00 0.01 0.02 0.02 0.03 0.02 0.01 0.01 0.01 0.00 0.00 0.00 0.00 0.01 0.01 0.02 0.02 0.05 0.05 0.05 0.06 0.07 0.08 0.09 0.09 0.09 0.08 0.07 0.06 0.04 0.04 0.04 0.03 0.03 0.02 0.02 0.02 0.02 0.02 0.02 0.02 0.02 0.02 0.02 0.01 0.02
0.00 0.00 0.00 0.00 0.01 0.01 0.02 0.02 0.01 0.01 0.01 0.01 0.00 0.00 0.00 0.00 0.00 0.01 0.01 0.02 0.03 0.03 0.03 0.04 0.03 0.03 0.05 0.06 0.07 0.06 0.05 0.05 0.04 0.03 0.03 0.02 0.02 0.02 0.02 0.02 0.03 0.02 0.02 0.02 0.02 0.03 0.03 0.01 0.01
0.00 0.00 0.00 0.01 0.01 0.01 0.02 0.01 0.00 0.00 0.01 0.01 0.00 0.00 0.00 0.01 0.01 0.01 0.01 0.01 0.01 0.02 0.02 0.03 0.03 0.02 0.02 0.02 0.03 0.03 0.04 0.04 0.04 0.03 0.02 0.02 0.02 0.03 0.02 0.01 0.02 0.02 0.01 0.01 0.01 0.03 0.02 0.00 0.00
0.00 0.00 0.00 0.00 0.01 0.01 0.01 0.01 0.00 0.00 0.00 0.00 0.01 0.01 0.01 0.01 0.02 0.02 0.02 0.02 0.01 0.01 0.01 0.01 0.01 0.01 0.01 0.01 0.01 0.01 0.02 0.02 0.03 0.03 0.02 0.02 0.03 0.03 0.02 0.01 0.01 0.01 0.01 0.01 0.02 0.02 0.01 0.00 0.01
0.00 0.00 0.00 0.00 0.00 0.01 0.01 0.00 0.01 0.00 0.00 0.00 0.00 0.01 0.01 0.01 0.01 0.01 0.02 0.01 0.02 0.02 0.01 0.01 0.01 0.00 0.01 0.01 0.00 0.00 0.00 0.01 0.01 0.01 0.01 0.01 0.03 0.04 0.03 0.02 0.02 0.01 0.01 0.01 0.01 0.02 0.01 0.01 0.01
0.00 0.00 0.00 0.00 0.00 0.00 0.00 0.00 0.01 0.01 0.00 0.00 0.01 0.02 0.02 0.01 0.01 0.01 0.02 0.02 0.02 0.01 0.01 0.01 0.01 0.01 0.01 0.01 0.01 0.01 0.01 0.01 0.01 0.01 0.01 0.02 0.02 0.02 0.03 0.03 0.02 0.01 0.01 0.02 0.01 0.01 0.01 0.00 0.00
0.00 0.00 0.00 0.01 0.01 0.00 0.00 0.00 0.01 0.01 0.01 0.01 0.01 0.02 0.02 0.02 0.02 0.01 0.01 0.01 0.01 0.01 0.01 0.01 0.01 0.01 0.01 0.01 0.00 0.01 0.02 0.02 0.02 0.02 0.01 0.01 0.02 0.02 0.02 0.02 0.02 0.01 0.02 0.02 0.02 0.02 0.00 0.00 0.00
0.00 0.00 0.00 0.00 0.01 0.01 0.00 0.00 0.01 0.01 0.03 0.03 0.02 0.02 0.02 0.02 0.02 0.01 0.01 0.01 0.01 0.02 0.01 0.01 0.01 0.01 0.01 0.00 0.00 0.01 0.01 0.02 0.02 0.03 0.03 0.03 0.02 0.03 0.03 0.02 0.02 0.02 0.02 0.01 0.02 0.03 0.01 0.00 0.00
0.00 0.00 0.00 0.00 0.00 0.01 0.00 0.00 0.00 0.01 0.01 0.02 0.02 0.01 0.01 0.01 0.02 0.02 0.02 0.01 0.01 0.02 0.02 0.02 0.01 0.01 0.02 0.02 0.01 0.01 0.01 0.01 0.01 0.02 0.03 0.04 0.03 0.02 0.04 0.05 0.04 0.02 0.02 0.02 0.03 0.02 0.01 0.01 0.02
0.00 0.00 0.00 0.00 0.00 0.00 0.00 0.00 0.01 0.01 0.01 0.01 0.01 0.01 0.01 0.01 0.02 0.02 0.03 0.03 0.03 0.03 0.03 0.03 0.03 0.03 0.03 0.04 0.04 0.03 0.02 0.01 0.01 0.02 0.03 0.05 0.07 0.05 0.05 0.08 0.07 0.04 0.03 0.03 0.04 0.03 0.02 0.02 0.03
0.00 0.01 0.00 0.00 0.00 0.00 0.00 0.00 0.01 0.01 0.01 0.01 0.00 0.01 0.01 0.02 0.02 0.03 0.04 0.05 0.06 0.05 0.04 0.03 0.04 0.03 0.04 0.04 0.03 0.03 0.02 0.02 0.01 0.02 0.02 0.04 0.09 0.10 0.08 0.10 0.09 0.07 0.04 0.02 0.03 0.04 0.03 0.02 0.02
0.00 0.01 0.01 0.01 0.00 0.00 0.00 0.01 0.02 0.02 0.01 0.01 0.01 0.01 0.01 0.01 0.02 0.03 0.03 0.05 0.06 0.05 0.04 0.03 0.04 0.04 0.03 0.03 0.03 0.03 0.02 0.02 0.02 0.02 0.02 0.02 0.06 0.10 0.11 0.11 0.10 0.07 0.04 0.02 0.02 0.03 0.04 0.03 0.03
0.01 0.01 0.01 0.01 0.01 0.01 0.01 0.02 0.02 0.01 0.00 0.00 0.01 0.01 0.01 0.01 0.01 0.02 0.02 0.03 0.05 0.05 0.03 0.03 0.04 0.04 0.03 0.04 0.04 0.04 0.03 0.02 0.02 0.02 0.01 0.01 0.02 0.06 0.11 0.13 0.11 0.08 0.05 0.02 0.02 0.02 0.02 0.03 0.03
0.01 0.01 0.01 0.01 0.02 0.01 0.02 0.02 0.01 0.01 0.00 0.00 0.01 0.01 0.01 0.01 0.01 0.02 0.02 0.02 0.03 0.03 0.03 0.03 0.03 0.04 0.04 0.04 0.05 0.06 0.05 0.03 0.03 0.03 0.02 0.01 0.02 0.04 0.07 0.12 0.12 0.09 0.06 0.03 0.02 0.02 0.02 0.02 0.03
0.01 0.01 0.01 0.01 0.01 0.01 0.02 0.01 0.00 0.01 0.00 0.01 0.01 0.01 0.01 0.01 0.01 0.01 0.01 0.02 0.02 0.03 0.03 0.02 0.02 0.03 0.04 0.04 0.06 0.06 0.06 0.05 0.05 0.05 0.04 0.03 0.02 0.02 0.04 0.06 0.10 0.09 0.06 0.04 0.02 0.02 0.02 0.02 0.02
0.01 0.01 0.01 0.01 0.01 0.01 0.01 0.01 0.00 0.00 0.00 0.00 0.00 0.01 0.01 0.01 0.01 0.01 0.02 0.03 0.02 0.03 0.03 0.02 0.02 0.03 0.03 0.03 0.03 0.05 0.06 0.07 0.07 0.06 0.04 0.03 0.02 0.02 0.01 0.02 0.04 0.07 0.07 0.04 0.03 0.02 0.02 0.02 0.02
0.01 0.01 0.01 0.01 0.01 0.01 0.00 0.00 0.00 0.00 0.00 0.00 0.00 0.01 0.01 0.01 0.01 0.01 0.01 0.02 0.02 0.02 0.02 0.02 0.02 0.02 0.01 0.01 0.01 0.02 0.03 0.04 0.06 0.07 0.05 0.03 0.02 0.01 0.01 0.01 0.02 0.03 0.04 0.04 0.04 0.03 0.02 0.02 0.02
0.00 0.01 0.01 0.01 0.01 0.01 0.00 0.00 0.00 0.00 0.00 0.00 0.00 0.00 0.01 0.01 0.01 0.01 0.01 0.02 0.02 0.02 0.02 0.01 0.01 0.02 0.02 0.02 0.02 0.02 0.02 0.03 0.04 0.06 0.06 0.04 0.02 0.01 0.01 0.01 0.01 0.02 0.03 0.03 0.03 0.03 0.02 0.01 0.01
0.00 0.01 0.01 0.01 0.00 0.00 0.00 0.00 0.00 0.00 0.00 0.00 0.00 0.00 0.01 0.00 0.00 0.01 0.02 0.03 0.02 0.02 0.02 0.02 0.02 0.02 0.02 0.02 0.02 0.02 0.02 0.02 0.03 0.04 0.05 0.04 0.02 0.01 0.01 0.01 0.01 0.01 0.02 0.02 0.02 0.02 0.01 0.01 0.00
0.00 0.00 0.01 0.01 0.01 0.01 0.00 0.00 0.00 0.00 0.00 0.00 0.00 0.00 0.00 0.01 0.01 0.01 0.02 0.02 0.02 0.02 0.02 0.02 0.02 0.02 0.01 0.01 0.01 0.01 0.02 0.02 0.02 0.03 0.04 0.05 0.05 0.03 0.02 0.01 0.01 0.01 0.01 0.01 0.02 0.02 0.01 0.01 0.01
0.00 0.00 0.00 0.01 0.00 0.00 0.00 0.00 0.00 0.00 0.00 0.00 0.00 0.00 0.00 0.01 0.01 0.01 0.02 0.02 0.02 0.02 0.02 0.02 0.02 0.02 0.02 0.02 0.02 0.02 0.03 0.03 0.02 0.01 0.02 0.04 0.05 0.05 0.03 0.01 0.01 0.00 0.01 0.01 0.01 0.01 0.01 0.02 0.01
0.00 0.00 0.00 0.01 0.01 0.00 0.00 0.00 0.00 0.00 0.00 0.00 0.00 0.00 0.00 0.01 0.01 0.02 0.03 0.02 0.02 0.02 0.02 0.02 0.02 0.02 0.02 0.02 0.02 0.02 0.02 0.03 0.02 0.01 0.02 0.03 0.03 0.03 0.03 0.02 0.01 0.01 0.01 0.01 0.01 0.01 0.01 0.01 0.01
MSLP
1009.51 1010.46 1011.54 1012.59 1013.42 1013.92 1014.04 1013.82 1013.35 1012.80 1012.31 1012.01 1011.94 1012.09 1012.39 1012.71 1012.94 1013.00 1012.86 1012.58 1012.22 1011.87 1011.64 1011.57 1011.67 1011.91 1012.20 1012.48 1012.70 1012.82 1012.86 1012.85 1012.86 1012.93 1013.09 1013.34 1013.65 1013.96 1014.24 1014.44 1014.55 1014.57 1014.55 1014.51 1014.48 1014.50 1014.55 1014.63 1014.71
1010.02 1011.07 1012.20 1013.20 1013.92 1014.24 1014.14 1013.68 1012.98 1012.23 1011.58 1011.17 1011.05 1011.19 1011.50 1011.86 1012.16 1012.31 1012.28 1012.10 1011.85 1011.63 1011.51 1011.54 1011.72 1012.02 1012.36 1012.67 1012.91 1013.04 1013.10 1013.11 1013.14 1013.22 1013.39 1013.64 1013.94 1014.24 1014.50 1014.69 1014.79 1014.83 1014.82 1014.80 1014.81 1014.85 1014.93 1015.02 1015.10
1010.68 1011.78 1012.88 1013.79 1014.35 1014.48 1014.16 1013.48 1012.60 1011.69 1010.95 1010.48 1010.33 1010.47 1010.81 1011.21 1011.56 1011.77 1011.82 1011.73 1011.59 1011.46 1011.43 1011.55 1011.80 1012.14 1012.52 1012.85 1013.11 1013.26 1013.34 1013.37 1013.42 1013.52 1013.69 1013.92 1014.20 1014.48 1014.71 1014.88 1014.98 1015.03 1015.06 1015.09 1015.15 1015.24 1015.36 1015.48 1015.58
1011.41 1012.51 1013.54 1014.32 1014.70 1014.63 1014.12 1013.28 1012.28 1011.30 1010.52 1010.04 1009.90 1010.06 1010.42 1010.85 1011.23 1011.48 1011.58 1011.56 1011.49 1011.44 1011.48 1011.65 1011.95 1012.32 1012.71 1013.06 1013.32 1013.49 1013.58 1013.64 1013.71 1013.82 1013.99 1014.22 1014.47 1014.72 1014.92 1015.08 1015.18 1015.26 1015.33 1015.42 1015.54 1015.69 1015.86 1016.02 1016.14
1012.14 1013.19 1014.11 1014.72 1014.94 1014.70 1014.05 1013.12 1012.07 1011.09 1010.33 1009.90 1009.80 1009.99 1010.37 1010.80 1011.19 1011.46 1011.58 1011.60 1011.58 1011.58 1011.68 1011.89 1012.20 1012.58 1012.96 1013.29 1013.55 1013.73 1013.84 1013.92 1014.02 1014.16 1014.34 1014.56 1014.79 1015.02 1015.20 1015.35 1015.46 1015.56 1015.67 1015.82 1016.00 1016.21 1016.42 1016.61 1016.76
1012.77 1013.74 1014.52 1014.98 1015.03 1014.66 1013.94 1012.99 1011.97 1011.05 1010.38 1010.02 1009.98 1010.20 1010.58 1011.01 1011.38 1011.64 1011.77 1011.81 1011.83 1011.87 1012.00 1012.23 1012.54 1012.90 1013.26 1013.57 1013.81 1013.99 1014.12 1014.24 1014.37 1014.54 1014.75 1014.98 1015.21 1015.42 1015.59 1015.72 1015.84 1015.96 1016.11 1016.30 1016.52 1016.78 1017.03 1017.24 1017.40
1013.26 1014.10 1014.73 1015.04 1014.97 1014.52 1013.78 1012.87 1011.94 1011.14 1010.58 1010.31 1010.33 1010.57 1010.94 1011.33 1011.67 1011.90 1012.04 1012.10 1012.15 1012.23 1012.39 1012.62 1012.93 1013.26 1013.58 1013.87 1014.09 1014.27 1014.42 1014.57 1014.75 1014.97 1015.21 1015.47 1015.71 1015.92 1016.08 1016.21 1016.33 1016.46 1016.63 1016.84 1017.10 1017.37 1017.64 1017.86 1018.02
1013.57 1014.28 1014.76 1014.93 1014.76 1014.28 1013.56 1012.73 1011.92 1011.26 1010.82 1010.64 1010.70 1010.94 1011.27 1011.61 1011.91 1012.12 1012.25 1012.34 1012.43 1012.56 1012.76 1013.01 1013.31 1013.62 1013.90 1014.15 1014.36 1014.54 1014.72 1014.91 1015.15 1015.42 1015.71 1016.00 1016.26 1016.48 1016.64 1016.77 1016.89 1017.02 1017.20 1017.42 1017.68 1017.96 1018.22 1018.44 1018.60
1013.73 1014.29 1014.63 1014.68 1014.44 1013.95 1013.29 1012.57 1011.89 1011.35 1011.02 1010.90 1010.97 1011.18 1011.46 1011.74 1011.98 1012.17 1012.32 1012.45 1012.60 1012.79 1013.03 1013.32 1013.62 1013.91 1014.18 1014.40 1014.60 1014.79 1014.99 1015.23 1015.52 1015.85 1016.19 1016.52 1016.81 1017.04 1017.21 1017.34 1017.45 1017.59 1017.76 1017.99 1018.25 1018.52 1018.78 1018.99 1019.13
1013.78 1014.21 1014.41 1014.36 1014.08 1013.60 1013.01 1012.39 1011.83 1011.40 1011.13 1011.04 1011.09 1011.24 1011.45 1011.65 1011.85 1012.02 1012.19 1012.38 1012.60 1012.87 1013.18 1013.51 1013.83 1014.12 1014.38 1014.59 1014.79 1014.99 1015.22 1015.51 1015.85 1016.23 1016.62 1016.99 1017.30 1017.55 1017.73 1017.86 1017.98 1018.12 1018.30 1018.52 1018.78 1019.06 1019.31 1019.52 1019.66
1013.79 1014.09 1014.18 1014.06 1013.75 1013.29 1012.77 1012.24 1011.77 1011.41 1011.18 1011.07 1011.07 1011.14 1011.26 1011.39 1011.54 1011.71 1011.91 1012.16 1012.46 1012.81 1013.19 1013.58 1013.93 1014.24 1014.50 1014.71 1014.92 1015.14 1015.41 1015.74 1016.12 1016.55 1016.97 1017.37 1017.70 1017.96 1018.16 1018.30 1018.44 1018.59 1018.78 1019.02 1019.30 1019.59 1019.85 1020.06 1020.20
1013.83 1014.02 1014.01 1013.84 1013.51 1013.09 1012.62 1012.16 1011.75 1011.43 1011.20 1011.05 1010.98 1010.96 1010.98 1011.04 1011.15 1011.31 1011.55 1011.85 1012.23 1012.66 1013.11 1013.55 1013.94 1014.27 1014.55 1014.78 1015.01 1015.26 1015.56 1015.92 1016.34 1016.79 1017.24 1017.65 1018.00 1018.27 1018.48 1018.65 1018.81 1018.99 1019.22 1019.50 1019.80 1020.12 1020.41 1020.64 1020.80
1013.94 1014.04 1013.97 1013.75 1013.43 1013.04 1012.62 1012.21 1011.84 1011.53 1011.27 1011.06 1010.91 1010.79 1010.73 1010.72 1010.79 1010.95 1011.21 1011.56 1012.00 1012.48 1012.98 1013.46 1013.89 1014.25 1014.55 1014.82 1015.08 1015.36 1015.69 1016.08 1016.52 1016.99 1017.44 1017.85 1018.20 1018.48 1018.71 1018.91 1019.11 1019.35 1019.63 1019.95 1020.31 1020.67 1021.00 1021.26 1021.45
1014.14 1014.17 1014.06 1013.83 1013.52 1013.16 1012.78 1012.41 1012.06 1011.74 1011.45 1011.18 1010.94 1010.74 1010.60 1010.53 1010.56 1010.71 1010.97 1011.35 1011.81 1012.32 1012.85 1013.35 1013.80 1014.19 1014.53 1014.84 1015.14 1015.46 1015.82 1016.24 1016.68 1017.15 1017.59 1017.99 1018.34 1018.63 1018.88 1019.12 1019.37 1019.66 1020.01 1020.40 1020.81 1021.23 1021.61 1021.92 1022.13
1014.42 1014.40 1014.26 1014.04 1013.75 1013.43 1013.10 1012.76 1012.42 1012.08 1011.74 1011.42 1011.11 1010.84 1010.63 1010.51 1010.50 1010.62 1010.87 1011.24 1011.69 1012.19 1012.72 1013.22 1013.69 1014.11 1014.49 1014.84 1015.19 1015.56 1015.96 1016.39 1016.84 1017.28 1017.71 1018.09 1018.43 1018.73 1019.01 1019.29 1019.60 1019.95 1020.36 1020.82 1021.29 1021.77 1022.20 1022.55 1022.81
1014.75 1014.69 1014.55 1014.34 1014.09 1013.81 1013.52 1013.20 1012.87 1012.51 1012.13 1011.75 1011.38 1011.05 1010.79 1010.62 1010.57 1010.66 1010.87 1011.19 1011.60 1012.08 1012.57 1013.07 1013.54 1013.99 1014.41 1014.82 1015.23 1015.64 1016.08 1016.52 1016.96 1017.39 1017.80 1018.17 1018.50 1018.81 1019.11 1019.44 1019.80 1020.21 1020.68 1021.19 1021.72 1022.23 1022.71 1023.11 1023.41
1015.07 1015.00 1014.87 1014.69 1014.48 1014.25 1013.99 1013.69 1013.35 1012.97 1012.55 1012.12 1011.70 1011.31 1011.00 1010.79 1010.69 1010.72 1010.88 1011.14 1011.50 1011.92 1012.37 1012.85 1013.33 1013.80 1014.28 1014.74 1015.21 1015.68 1016.15 1016.60 1017.04 1017.46 1017.84 1018.20 1018.53 1018.85 1019.19 1019.55 1019.97 1020.43 1020.94 1021.49 1022.05 1022.59 1023.10 1023.53 1023.88
1015.35 1015.28 1015.17 1015.04 1014.89 1014.70 1014.47 1014.18 1013.82 1013.40 1012.93 1012.45 1011.96 1011.52 1011.16 1010.89 1010.75 1010.72 1010.81 1011.01 1011.30 1011.66 1012.07 1012.53 1013.02 1013.53 1014.06 1014.59 1015.12 1015.64 1016.14 1016.61 1017.04 1017.45 1017.81 1018.16 1018.50 1018.85 1019.22 1019.63 1020.09 1020.59 1021.13 1021.69 1022.26 1022.81 1023.33 1023.80 1024.19
1015.55 1015.50 1015.45 1015.37 1015.28 1015.14 1014.92 1014.63 1014.24 1013.76 1013.22 1012.66 1012.11 1011.60 1011.18 1010.86 1010.66 1010.58 1010.60 1010.73 1010.96 1011.26 1011.65 1012.10 1012.61 1013.16 1013.75 1014.35 1014.94 1015.50 1016.03 1016.51 1016.95 1017.33 1017.70 1018.05 1018.41 1018.79 1019.20 1019.66 1020.15 1020.68 1021.23 1021.79 1022.35 1022.89 1023.41 1023.89 1024.33
1015.68 1015.68 1015.69 1015.69 1015.66 1015.55 1015.34 1015.02 1014.57 1014.01 1013.39 1012.73 1012.10 1011.52 1011.03 1010.65 1010.40 1010.25 1010.22 1010.30 1010.47 1010.74 1011.11 1011.57 1012.10 1012.71 1013.36 1014.02 1014.67 1015.28 1015.83 1016.32 1016.74 1017.13 1017.49 1017.85 1018.24 1018.66 1019.12 1019.63 1020.16 1020.71 1021.26 1021.80 1022.34 1022.85 1023.35 1023.84 1024.31
1015.75 1015.83 1015.92 1016.00 1016.03 1015.95 1015.73 1015.36 1014.83 1014.17 1013.44 1012.68 1011.94 1011.28 1010.72 1010.28 1009.97 1009.78 1009.71 1009.74 1009.88 1010.13 1010.50 1010.97 1011.55 1012.21 1012.91 1013.63 1014.33 1014.97 1015.54 1016.03 1016.46 1016.84 1017.21 1017.59 1018.01 1018.48 1019.00 1019.55 1020.13 1020.69 1021.24 1021.76 1022.25 1022.73 1023.20 1023.68 1024.16
1015.82 1015.98 1016.17 1016.33 1016.41 1016.34 1016.09 1015.65 1015.02 1014.25 1013.40 1012.52 1011.69 1010.94 1010.32 1009.82 1009.47 1009.24 1009.13 1009.13 1009.25 1009.50 1009.87 1010.37 1010.99 1011.70 1012.46 1013.23 1013.96 1014.63 1015.22 1015.71 1016.13 1016.51 1016.89 1017.29 1017.75 1018.27 1018.84 1019.45 1020.06 1020.65 1021.19 1021.69 1022.15 1022.58 1023.01 1023.46 1023.95
1015.92 1016.19 1016.46 1016.69 1016.80 1016.72 1016.42 1015.90 1015.16 1014.28 1013.30 1012.32 1011.40 1010.58 1009.90 1009.36 1008.97 1008.72 1008.58 1008.57 1008.67 1008.92 1009.30 1009.81 1010.46 1011.21 1012.01 1012.82 1013.59 1014.28 1014.88 1015.38 1015.80 1016.18 1016.57 1017.00 1017.49 1018.05 1018.68 1019.33 1019.98 1020.58 1021.13 1021.61 1022.03 1022.42 1022.81 1023.23 1023.70
1016.10 1016.45 1016.80 1017.06 1017.17 1017.06 1016.70 1016.08 1015.24 1014.25 1013.18 1012.12 1011.13 1010.26 1009.55 1008.99 1008.58 1008.30 1008.15 1008.11 1008.20 1008.43 1008.80 1009.32 1009.99 1010.76 1011.59 1012.43 1013.23 1013.94 1014.55 1015.06 1015.48 1015.88 1016.27 1016.72 1017.24 1017.84 1018.50 1019.19 1019.87 1020.50 1021.05 1021.52 1021.93 1022.29 1022.64 1023.02 1023.46
1016.38 1016.77 1017.15 1017.41 1017.48 1017.31 1016.87 1016.16 1015.23 1014.16 1013.03 1011.92 1010.91 1010.04 1009.32 1008.76 1008.35 1008.06 1007.88 1007.81 1007.86 1008.05 1008.40 1008.90 1009.55 1010.33 1011.17 1012.03 1012.85 1013.59 1014.23 1014.75 1015.20 1015.60 1016.01 1016.48 1017.01 1017.63 1018.31 1019.02 1019.72 1020.37 1020.94 1021.42 1021.81 1022.16 1022.49 1022.84 1023.24
1016.72 1017.12 1017.47 1017.68 1017.69 1017.43 1016.89 1016.10 1015.11 1013.99 1012.84 1011.75 1010.76 1009.92 1009.24 1008.70 1008.29 1007.99 1007.78 1007.67 1007.66 1007.79 1008.07 1008.52 1009.13 1009.89 1010.72 1011.59 1012.44 1013.21 1013.88 1014.44 1014.92 1015.34 1015.77 1016.24 1016.78 1017.40 1018.09 1018.81 1019.52 1020.18 1020.77 1021.26 1021.68 1022.03 1022.35 1022.68 1023.06
1017.10 1017.45 1017.72 1017.83 1017.73 1017.36 1016.74 1015.88 1014.86 1013.74 1012.63 1011.59 1010.67 1009.91 1009.29 1008.80 1008.41 1008.10 1007.85 1007.67 1007.58 1007.61 1007.80 1008.16 1008.71 1009.41 1010.23 1011.10 1011.96 1012.77 1013.48 1014.09 1014.61 1015.07 1015.52 1016.00 1016.54 1017.14 1017.82 1018.53 1019.24 1019.91 1020.52 1021.04 1021.49 1021.87 1022.21 1022.54 1022.90
1017.44 1017.69 1017.83 1017.81 1017.58 1017.11 1016.40 1015.51 1014.48 1013.41 1012.38 1011.45 1010.65 1009.99 1009.46 1009.04 1008.67 1008.35 1008.05 1007.79 1007.59 1007.51 1007.57 1007.82 1008.27 1008.90 1009.67 1010.53 1011.40 1012.25 1013.01 1013.68 1014.25 1014.76 1015.24 1015.72 1016.25 1016.84 1017.49 1018.18 1018.89 1019.57 1020.20 1020.76 1021.24 1021.67 1022.04 1022.40 1022.76
1017.67 1017.78 1017.78 1017.61 1017.25 1016.68 1015.92 1015.01 1014.03 1013.05 1012.13 1011.33 1010.67 1010.14 1009.72 1009.36 1009.02 1008.68 1008.32 1007.97 1007.66 1007.44 1007.37 1007.49 1007.83 1008.37 1009.07 1009.90 1010.78 1011.65 1012.47 1013.19 1013.83 1014.38 1014.89 1015.40 1015.92 1016.49 1017.12 1017.78 1018.47 1019.16 1019.80 1020.41 1020.95 1021.43 1021.86 1022.25 1022.63
1017.73 1017.69 1017.54 1017.25 1016.77 1016.13 1015.35 1014.47 1013.56 1012.69 1011.91 1011.26 1010.74 1010.33 1010.00 1009.69 1009.37 1009.01 1008.60 1008.16 1007.75 1007.41 1007.21 1007.20 1007.41 1007.85 1008.48 1009.27 1010.13 1011.02 1011.87 1012.65 1013.34 1013.95 1014.50 1015.03 1015.56 1016.12 1016.72 1017.36 1018.04 1018.72 1019.39 1020.02 1020.62 1021.15 1021.64 1022.08 1022.49
Thickness
5787 5786 5782 5770 5746 5725 5721 5730 5738 5739 5741 5747 5751 5747 5741 5736 5732 5729 5746 5755 5755 5756 5757 5758 5759 5759 5760 5760 5761 5761 5762 5762 5762 5763 5763 5763 5763 5764 5764 5764 5765 5765 5765 5766 5766 5767 5767 5768 5770
5785 5782 5772 5754 5728 5711 5717 5731 5734 5740 5745 5750 5749 5745 5740 5737 5742 5743 5747 5752 5754 5754 5755 5755 5756 5756 5757 5757 5757 5758 5759 5759 5759 5759 5760 5760 5760 5761 5761 5762 5761 5762 5762 5763 5763 5763 5763 5764 5765
5782 5777 5756 5737 5721 5713 5721 5732 5736 5743 5749 5748 5742 5741 5738 5736 5741 5743 5748 5751 5752 5752 5752 5753 5754 5754 5754 5754 5754 5754 5755 5755 5755 5756 5756 5756 5757 5757 5758 5758 5758 5758 5759 5759 5760 5760 5760 5760 5760
5775 5761 5746 5728 5719 5723 5729 5734 5739 5741 5744 5745 5741 5735 5737 5743 5744 5746 5749 5750 5749 5749 5750 5750 5751 5751 5751 5751 5751 5751 5751 5751 5751 5752 5752 5753 5753 5753 5754 5754 5754 5754 5755 5755 5756 5756 5757 5757 5756
5766 5746 5727 5715 5719 5727 5733 5738 5741 5738 5737 5739 5738 5730 5731 5740 5746 5747 5747 5747 5746 5746 5747 5747 5748 5748 5749 5749 5748 5747 5748 5748 5747 5748 5748 5749 5749 5749 5750 5750 5750 5750 5751 5751 5751 5751 5752 5752 5752
5748 5735 5713 5707 5716 5726 5733 5738 5738 5735 5735 5736 5734 5729 5729 5739 5741 5743 5744 5744 5744 5744 5744 5743 5744 5745 5747 5747 5745 5744 5743 5744 5743 5744 5744 5744 5745 5745 5745 5745 5745 5746 5746 5747 5747 5747 5747 5748 5748
5740 5725 5713 5713 5714 5721 5731 5738 5734 5731 5731 5733 5736 5727 5728 5734 5738 5740 5740 5740 5741 5740 5740 5740 5740 5741 5742 5741 5740 5740 5740 5739 5739 5739 5739 5740 5740 5740 5740 5740 5740 5741 5741 5742 5742 5743 5743 5743 5743
5744 5725 5714 5712 5713 5718 5731 5735 5735 5732 5730 5738 5737 5726 5725 5733 5737 5737 5736 5736 5736 5736 5736 5736 5736 5736 5736 5735 5735 5735 5735 5735 5735 5735 5735 5735 5735 5735 5735 5735 5735 5736 5736 5737 5738 5738 5738 5738 5738
5745 5717 5706 5712 5715 5720 5730 5729 5732 5736 5733 5733 5734 5733 5734 5735 5734 5731 5729 5729 5730 5731 5732 5732 5732 5731 5731 5731 5731 5730 5730 5730 5730 5730 5730 5729 5729 5730 5730 5730 5731 5731 5731 5732 5733 5733 5733 5733 5733
5732 5709 5714 5723 5725 5725 5727 5727 5727 5727 5723 5724 5726 5730 5733 5731 5729 5726 5724 5724 5724 5725 5727 5728 5727 5727 5727 5727 5726 5726 5725 5725 5724 5724 5724 5724 5724 5724 5725 5725 5726 5726 5726 5727 5727 5728 5727 5727 5727
5728 5716 5722 5726 5729 5729 5725 5725 5728 5721 5716 5721 5722 5724 5726 5725 5723 5722 5722 5722 5722 5723 5723 5724 5723 5723 5723 5722 5722 5721 5721 5720 5719 5719 5719 5719 5719 5719 5719 5719 5720 5720 5721 5721 5722 5722 5721 5721 5721
5725 5723 5725 5726 5730 5727 5724 5723 5721 5720 5721 5727 5727 5725 5723 5721 5719 5719 5719 5719 5720 5719 5719 5720 5719 5719 5718 5718 5717 5716 5716 5715 5715 5714 5714 5714 5714 5714 5714 5714 5714 5715 5715 5716 5716 5716 5716 5716 5716
5722 5721 5724 5726 5726 5724 5723 5718 5717 5717 5723 5725 5723 5720 5718 5717 5717 5718 5719 5718 5717 5715 5715 5715 5715 5714 5714 5713 5712 5712 5711 5710 5710 5709 5709 5709 5709 5708 5708 5708 5709 5709 5710 5710 5711 5711 5710 5710 5710
5721 5719 5719 5721 5721 5722 5717 5714 5714 5714 5719 5718 5716 5714 5714 5714 5714 5714 5714 5713 5713 5713 5712 5712 5712 5711 5710 5709 5708 5708 5707 5706 5706 5705 5705 5705 5704 5704 5703 5704 5704 5704 5704 5705 5705 5705 5705 5704 5704
5722 5713 5712 5714 5716 5716 5715 5704 5707 5713 5715 5712 5711 5710 5710 5711 5711 5710 5711 5710 5710 5710 5710 5709 5708 5707 5706 5705 5704 5704 5703 5702 5702 5701 5701 5700 5700 5699 5699 5699 5699 5699 5699 5699 5699 5699 5699 5699 5698
5712 5701 5694 5706 5711 5713 5706 5691 5705 5710 5709 5705 5705 5706 5706 5707 5708 5708 5709 5709 5708 5707 5706 5706 5705 5703 5702 5701 5700 5699 5699 5698 5697 5697 5696 5696 5695 5695 5694 5694 5693 5693 5694 5693 5693 5693 5692 5692 5691
5693 5685 5688 5697 5707 5706 5699 5692 5703 5706 5705 5701 5701 5701 5701 5702 5703 5705 5706 5706 5706 5705 5703 5701 5701 5699 5698 5697 5696 5695 5694 5693 5692 5692 5691 5691 5691 5690 5689 5688 5688 5688 5688 5687 5688 5686 5686 5685 5685
5684 5684 5687 5689 5699 5698 5692 5691 5699 5702 5701 5698 5697 5697 5697 5697 5700 5702 5702 5703 5703 5701 5700 5698 5696 5695 5693 5692 5690 5689 5688 5687 5687 5687 5686 5686 5686 5685 5684 5683 5683 5683 5682 5681 5681 5680 5680 5679 5679
5694 5688 5685 5690 5699 5693 5688 5689 5693 5696 5696 5693 5692 5691 5692 5694 5697 5698 5698 5698 5697 5696 5694 5693 5691 5690 5689 5687 5684 5682 5681 5681 5682 5682 5681 5681 5681 5680 5679 5678 5677 5677 5676 5675 5675 5675 5674 5673 5673
5693 5685 5683 5688 5696 5691 5685 5685 5689 5691 5692 5692 5691 5689 5690 5691 5692 5692 5692 5692 5691 5690 5689 5687 5686 5685 5685 5683 5682 5680 5679 5677 5677 5676 5676 5676 5675 5674 5674 5672 5671 5671 5671 5670 5669 5669 5668 5667 5667
5689 5685 5684 5682 5686 5685 5681 5677 5682 5688 5690 5691 5690 5689 5688 5689 5687 5687 5687 5687 5686 5685 5684 5684 5682 5681 5681 5680 5678 5676 5674 5673 5672 5671 5670 5670 5670 5669 5668 5667 5666 5666 5666 5664 5664 5664 5663 5661 5661
5682 5693 5690 5684 5672 5663 5672 5655 5673 5679 5681 5684 5685 5685 5685 5686 5686 5685 5685 5683 5682 5682 5681 5681 5679 5677 5677 5676 5674 5672 5669 5667 5666 5666 5665 5665 5664 5664 5663 5662 5661 5661 5661 5660 5659 5659 5658 5657 5654
5688 5693 5687 5680 5670 5659 5661 5654 5662 5673 5674 5679 5682 5684 5684 5684 5684 5683 5683 5681 5680 5679 5677 5676 5675 5673 5672 5672 5670 5668 5665 5663 5662 5661 5660 5659 5659 5658 5658 5657 5656 5656 5655 5654 5654 5653 5652 5651 5649
5691 5681 5673 5663 5657 5647 5654 5649 5653 5664 5673 5679 5682 5683 5683 5682 5682 5681 5681 5679 5676 5675 5673 5672 5671 5669 5668 5667 5665 5663 5661 5659 5656 5655 5654 5653 5653 5652 5652 5652 5651 5650 5649 5648 5648 5647 5646 5645 5644
5681 5663 5645 5643 5635 5639 5653 5648 5654 5673 5679 5681 5681 5680 5681 5679 5678 5677 5675 5674 5672 5670 5669 5667 5666 5664 5663 5662 5660 5658 5657 5655 5653 5651 5649 5648 5647 5646 5645 5646 5644 5643 5642 5642 5642 5641 5639 5638 5637
5673 5664 5643 5635 5631 5636 5647 5645 5661 5677 5680 5681 5680 5679 5677 5675 5674 5673 5672 5671 5669 5667 5665 5663 5661 5659 5658 5657 5655 5653 5652 5650 5648 5646 5645 5643 5642 5641 5640 5639 5638 5637 5636 5635 5635 5633 5632 5631 5630
5668 5658 5659 5641 5637 5632 5638 5649 5663 5675 5675 5675 5674 5673 5671 5671 5671 5670 5669 5667 5665 5663 5661 5659 5657 5655 5653 5652 5650 5648 5646 5644 5643 5641 5640 5639 5637 5636 5634 5633 5632 5631 5629 5629 5627 5626 5624 5623 5622
5673 5659 5644 5637 5627 5624 5633 5640 5648 5663 5666 5668 5667 5666 5666 5667 5666 5665 5663 5662 5661 5659 5656 5654 5652 5651 5649 5647 5645 5644 5641 5639 5637 5636 5634 5632 5631 5630 5628 5627 5625 5624 5623 5622 5620 5618 5617 5615 5614
5660 5653 5642 5631 5629 5621 5621 5636 5661 5663 5665 5664 5663 5662 5661 5662 5661 5659 5658 5656 5655 5653 5651 5648 5646 5645 5643 5641 5639 5637 5635 5633 5631 5629 5628 5626 5625 5624 5622 5621 5619 5617 5616 5614 5612 5611 5609 5608 5606
5662 5654 5642 5632 5626 5621 5619 5633 5663 5662 5662 5661 5660 5659 5658 5657 5656 5654 5652 5650 5648 5646 5644 5642 5641 5639 5638 5635 5633 5631 5629 5627 5625 5623 5621 5620 5619 5618 5616 5614 5612 5610 5609 5607 5605 5603 5602 5600 5599